This is the latest recevied weather packets stored in our database for station/object N4TLC. If no packets are shown the sender has not sent any weather packets the latest 10 day(s).
| Time | Temp. | Humidity | Pressure | Rain* | Wind** | Luminosity | Snow |
|---|---|---|---|---|---|---|---|
| 1777986293 | 17.22° C | 65% | 1018.8 hPa | 0 mm | - | 51 W/m² | - |
| 1777985990 | 16.67° C | 66% | 1018.5 hPa | 0 mm | - | 50 W/m² | - |
| 1777985687 | 16.67° C | 66% | 1018.7 hPa | 0 mm | - | 49 W/m² | - |
| 1777985384 | 16.67° C | 67% | 1018.4 hPa | 0 mm | - | 48 W/m² | - |
| 1777985081 | 16.67° C | 68% | 1018.5 hPa | 0 mm | - | 47 W/m² | - |
| 1777984777 | 16.11° C | 69% | 1018.2 hPa | 0 mm | - | 46 W/m² | - |
| 1777984474 | 16.11° C | 70% | 1018.2 hPa | 0 mm | - | 46 W/m² | - |
| 1777984169 | 15.56° C | 70% | 1018.2 hPa | 0 mm | - | 45 W/m² | - |
| 1777983867 | 15.56° C | 70% | 1018.2 hPa | 0 mm | - | 45 W/m² | - |
| 1777983563 | 15.56° C | 70% | 1018.2 hPa | 0 mm | - | 44 W/m² | - |
| 1777983261 | 15.56° C | 71% | 1018.4 hPa | 0 mm | - | 43 W/m² | - |
| 1777982956 | 15° C | 72% | 1018.4 hPa | 0 mm | - | 42 W/m² | - |
| 1777982653 | 15° C | 73% | 1018.1 hPa | 0 mm | - | 42 W/m² | - |
| 1777982352 | 14.44° C | 74% | 1018.2 hPa | 0 mm | - | 43 W/m² | - |
| 1777982049 | 14.44° C | 74% | 1018.4 hPa | 0 mm | - | 42 W/m² | - |
| 1777981747 | 14.44° C | 75% | 1018.1 hPa | 0 mm | - | 37 W/m² | - |
| 1777981443 | 13.89° C | 75% | 1018.1 hPa | 0 mm | - | 35 W/m² | - |
| 1777981139 | 13.89° C | 75% | 1018.1 hPa | 0 mm | - | 35 W/m² | - |
| 1777980836 | 13.89° C | 76% | 1018.1 hPa | 0 mm | - | 38 W/m² | - |
| 1777980531 | 13.33° C | 76% | 1018.1 hPa | 0 mm | - | 39 W/m² | - |
| 1777980230 | 12.78° C | 77% | 1018.2 hPa | 0 mm | - | 37 W/m² | - |
| 1777979925 | 12.78° C | 78% | 1018 hPa | 0 mm | - | 35 W/m² | - |
| 1777979620 | 12.78° C | 79% | 1018 hPa | 0 mm | - | 33 W/m² | - |
| 1777979317 | 12.22° C | 79% | 1018 hPa | 0 mm | - | 29 W/m² | - |
| 1777979014 | 12.22° C | 80% | 1018.1 hPa | 0 mm | - | 24 W/m² | - |
* Rain latest hour (hover to see other rain measurements)
** Current wind speed in m/s (hover to see current wind gust speed)